TimeMST,TemperatureF,Dew PointF,Humidity,Sea Level PressureIn,VisibilityMPH,Wind Direction,Wind SpeedMPH,Gust SpeedMPH,PrecipitationIn,Events,Conditions,WindDirDegrees,DateUTC
12:15 AM,37.2,21.2,52,29.82,10.0,WNW,4.6,-,N/A,,Clear,300,2013-12-03 07:15:00
12:35 AM,42.4,16.7,35,29.80,10.0,West,18.4,24.2,N/A,,Clear,260,2013-12-03 07:35:00
12:55 AM,42.4,17.2,36,29.80,10.0,WSW,16.1,25.3,N/A,,Clear,250,2013-12-03 07:55:00
1:15 AM,41.4,18.1,39,29.80,10.0,WSW,16.1,23.0,N/A,,Clear,240,2013-12-03 08:15:00
1:35 AM,41.2,18.3,40,29.80,10.0,WSW,13.8,19.6,N/A,,Clear,240,2013-12-03 08:35:00
1:55 AM,37.6,20.1,49,29.80,10.0,SW,11.5,18.4,N/A,,Clear,230,2013-12-03 08:55:00
2:15 AM,37.9,20.1,49,29.79,10.0,WSW,8.1,-,N/A,,Clear,240,2013-12-03 09:15:00
2:35 AM,38.3,19.4,47,29.79,10.0,SW,11.5,19.6,N/A,,Clear,220,2013-12-03 09:35:00
2:55 AM,36.7,19.4,50,29.78,10.0,SSW,8.1,16.1,N/A,,Clear,210,2013-12-03 09:55:00
3:15 AM,36.7,19.2,49,29.78,10.0,SSW,15.0,20.7,N/A,,Clear,210,2013-12-03 10:15:00
3:35 AM,36.3,18.9,49,29.77,10.0,SSW,11.5,20.7,N/A,,Clear,210,2013-12-03 10:35:00
3:55 AM,35.8,19.2,51,29.76,10.0,SW,9.2,-,N/A,,Clear,220,2013-12-03 10:55:00
4:15 AM,36.5,18.7,49,29.75,10.0,SW,10.4,17.3,N/A,,Clear,220,2013-12-03 11:15:00
4:35 AM,35.1,18.5,51,29.75,10.0,WSW,10.4,21.9,N/A,,Clear,240,2013-12-03 11:35:00
4:55 AM,34.7,18.0,51,29.75,10.0,SW,18.4,21.9,N/A,,Clear,220,2013-12-03 11:55:00
5:15 AM,34.3,17.8,51,29.75,10.0,WSW,13.8,19.6,N/A,,Mostly Cloudy,240,2013-12-03 12:15:00
5:35 AM,34.5,18.0,51,29.73,10.0,SW,17.3,20.7,N/A,,Mostly Cloudy,230,2013-12-03 12:35:00
5:55 AM,34.9,17.4,49,29.73,10.0,SW,10.4,20.7,N/A,,Clear,230,2013-12-03 12:55:00
6:15 AM,34.7,17.4,49,29.73,10.0,SW,11.5,24.2,N/A,,Mostly Cloudy,220,2013-12-03 13:15:00
6:35 AM,34.3,17.8,51,29.74,10.0,SW,16.1,24.2,N/A,,Overcast,220,2013-12-03 13:35:00
6:55 AM,34.9,17.6,49,29.74,10.0,SSW,12.7,19.6,N/A,,Overcast,210,2013-12-03 13:55:00
7:15 AM,35.6,17.6,48,29.73,10.0,SSW,8.1,18.4,N/A,,Overcast,200,2013-12-03 14:15:00
7:35 AM,35.6,18.1,49,29.73,10.0,SSW,10.4,-,N/A,,Overcast,210,2013-12-03 14:35:00
7:55 AM,35.6,18.5,50,29.74,10.0,WSW,6.9,-,N/A,,Overcast,240,2013-12-03 14:55:00
8:15 AM,36.0,18.9,50,29.74,10.0,SSW,11.5,19.6,N/A,,Overcast,210,2013-12-03 15:15:00
8:35 AM,35.6,19.0,51,29.73,10.0,SW,4.6,-,N/A,,Overcast,220,2013-12-03 15:35:00
8:55 AM,37.6,20.5,50,29.73,10.0,South,12.7,23.0,N/A,,Overcast,190,2013-12-03 15:55:00
9:15 AM,36.7,20.3,52,29.74,10.0,South,17.3,25.3,N/A,,Overcast,190,2013-12-03 16:15:00
9:35 AM,37.8,21.2,51,29.74,10.0,South,8.1,18.4,N/A,,Overcast,180,2013-12-03 16:35:00
9:55 AM,37.6,21.6,52,29.74,10.0,South,12.7,20.7,N/A,,Overcast,190,2013-12-03 16:55:00
10:15 AM,37.4,23.0,56,29.75,10.0,South,10.4,17.3,N/A,,Overcast,190,2013-12-03 17:15:00
10:35 AM,37.9,25.3,60,29.75,10.0,SW,8.1,-,N/A,,Overcast,230,2013-12-03 17:35:00
10:55 AM,36.7,24.6,62,29.74,10.0,South,12.7,17.3,N/A,,Overcast,180,2013-12-03 17:55:00
11:15 AM,35.2,27.0,72,29.73,10.0,WNW,3.5,-,N/A,,Overcast,300,2013-12-03 18:15:00
11:35 AM,35.2,27.3,73,29.72,10.0,West,3.5,-,N/A,,Overcast,280,2013-12-03 18:35:00
11:55 AM,35.6,27.0,71,29.70,10.0,SW,4.6,-,N/A,,Overcast,220,2013-12-03 18:55:00
12:15 PM,36.5,24.3,61,29.68,10.0,South,13.8,24.2,N/A,,Overcast,190,2013-12-03 19:15:00
12:35 PM,35.4,25.3,67,29.68,10.0,South,16.1,23.0,N/A,,Overcast,190,2013-12-03 19:35:00
12:55 PM,36.7,24.6,62,29.67,10.0,South,11.5,19.6,N/A,,Overcast,170,2013-12-03 19:55:00
1:15 PM,34.9,25.3,68,29.66,10.0,South,9.2,20.7,N/A,,Overcast,190,2013-12-03 20:15:00
1:35 PM,35.1,25.5,68,29.65,10.0,SSE,11.5,20.7,N/A,,Overcast,150,2013-12-03 20:35:00
1:55 PM,36.9,24.4,61,29.64,10.0,SSE,4.6,-,N/A,,Overcast,150,2013-12-03 20:55:00
2:15 PM,37.8,23.7,57,29.63,10.0,SE,8.1,17.3,N/A,,Overcast,140,2013-12-03 21:15:00
2:35 PM,38.3,22.6,53,29.62,10.0,South,16.1,20.7,N/A,,Mostly Cloudy,190,2013-12-03 21:35:00
2:55 PM,38.3,22.8,54,29.61,10.0,South,8.1,24.2,N/A,,Overcast,190,2013-12-03 21:55:00
3:15 PM,38.3,22.3,53,29.61,10.0,South,10.4,16.1,N/A,,Overcast,170,2013-12-03 22:15:00
3:35 PM,38.3,23.0,54,29.61,10.0,South,10.4,17.3,N/A,,Overcast,170,2013-12-03 22:35:00
3:55 PM,38.3,23.0,54,29.60,10.0,South,5.8,-,N/A,,Overcast,180,2013-12-03 22:55:00
4:15 PM,38.3,22.8,54,29.61,10.0,West,4.6,-,N/A,,Overcast,280,2013-12-03 23:15:00
4:35 PM,36.9,24.3,60,29.61,10.0,WNW,3.5,-,N/A,,Overcast,290,2013-12-03 23:35:00
4:55 PM,37.8,21.7,53,29.61,10.0,Calm,Calm,-,N/A,,Overcast,0,2013-12-03 23:55:00
5:15 PM,37.0,22.8,56,29.61,10.0,West,8.1,-,N/A,,Overcast,280,2013-12-04 00:15:00
5:35 PM,36.9,22.8,57,29.61,10.0,Calm,Calm,-,N/A,,Overcast,0,2013-12-04 00:35:00
5:55 PM,35.4,25.3,67,29.60,10.0,Calm,Calm,-,N/A,,Overcast,0,2013-12-04 00:55:00
6:15 PM,36.1,23.9,61,29.61,10.0,SSE,4.6,-,N/A,,Overcast,150,2013-12-04 01:15:00
6:35 PM,38.8,21.2,49,29.61,10.0,South,13.8,18.4,N/A,,Overcast,180,2013-12-04 01:35:00
6:55 PM,38.8,21.9,51,29.61,10.0,SSW,6.9,19.6,N/A,,Overcast,210,2013-12-04 01:55:00
7:15 PM,38.8,21.0,49,29.60,10.0,South,5.8,16.1,N/A,,Overcast,190,2013-12-04 02:15:00
7:35 PM,39.7,20.7,46,29.60,10.0,SSW,10.4,18.4,N/A,,Overcast,200,2013-12-04 02:35:00
7:55 PM,39.7,21.0,47,29.59,10.0,South,9.2,16.1,N/A,,Overcast,180,2013-12-04 02:55:00
8:15 PM,39.7,22.3,50,29.58,10.0,South,13.8,18.4,N/A,,Overcast,180,2013-12-04 03:15:00
8:35 PM,39.2,23.2,53,29.57,10.0,South,8.1,24.2,N/A,,Overcast,170,2013-12-04 03:35:00
8:55 PM,38.8,23.9,55,29.56,10.0,SSE,4.6,-,N/A,,Overcast,150,2013-12-04 03:55:00
9:15 PM,38.3,24.6,58,29.56,10.0,SE,13.8,19.6,N/A,,Overcast,140,2013-12-04 04:15:00
9:35 PM,37.6,26.4,64,29.56,10.0,South,3.5,-,N/A,,Overcast,170,2013-12-04 04:35:00
9:55 PM,38.7,25.2,58,29.56,10.0,South,11.5,18.4,N/A,,Overcast,180,2013-12-04 04:55:00
10:15 PM,38.3,26.6,63,29.55,10.0,SSE,15.0,18.4,N/A,,Overcast,160,2013-12-04 05:15:00
10:35 PM,38.7,27.0,63,29.54,10.0,SSE,6.9,16.1,N/A,,Overcast,150,2013-12-04 05:35:00
10:55 PM,38.5,27.1,64,29.54,10.0,SSE,12.7,24.2,N/A,,Overcast,160,2013-12-04 05:55:00
11:15 PM,38.3,27.3,65,29.54,10.0,South,10.4,17.3,N/A,,Overcast,170,2013-12-04 06:15:00
11:35 PM,38.5,27.1,64,29.53,10.0,South,13.8,24.2,N/A,,Overcast,180,2013-12-04 06:35:00
11:55 PM,38.7,27.0,63,29.53,10.0,South,6.9,18.4,N/A,,Overcast,170,2013-12-04 06:55:00